Weather History for VTSP - July, 2014

Change the Weather History Date:

Thursday, July 17, 2014

  Actual Average Record
Temperature  
Mean Temperature 82 °F -  
Max Temperature 88 °F 87 °F 93 °F (1996)
Min Temperature 75 °F 78 °F 35 °F (1996)
Cooling Degree Days 16    
Growing Degree Days 32 (Base 50)    
Moisture  
Dew Point 75 °F    
Average Humidity 78    
Maximum Humidity 94    
Minimum Humidity 62    
Precipitation  
Precipitation 0.03 in 0.36 in - ()
Sea Level Pressure  
Sea Level Pressure 29.79 in    
Wind  
Wind Speed 6 mph ()    
Max Wind Speed 21 mph    
Max Gust Speed -    
Visibility 5.5 miles    
Events      
Averages and records for this station are not official NWS values.
T = Trace of Precipitation, MM = Missing Value Source: Averaged Metar Reports

Daily Weather History Graph

Daily Weather History Graph

Search for Another Location

Airport or City:

Trip Planner

Search our weather history database for the weather conditions in past years. The results will help you decide how hot, cold, wet, or windy it might be!

Date:

Astronomy

Jul. 17, 2014 Rise Set
Actual Time 6:16 AM ICT 6:49 PM ICT
Civil Twilight 5:54 AM ICT 7:11 PM ICT
Nautical Twilight 5:27 AM ICT 7:38 PM ICT
Astronomical Twilight 5:00 AM ICT 8:04 PM ICT
Moon 11:06 PM ICT (7/17) 10:43 AM ICT (7/17)
Length of Visible Light 13h 17m
Length of Day
12h 32m
Waning Gibbous, 70% of the Moon is Illuminated
Jul 17
Waning Gibbous
Jul 19
Last Quarter
Jul 27
New
Aug 4
First Quarter
Aug 11
Full

Hourly Weather History & Observations

Time (ICT) Temp. Heat Index Dew Point Humidity Pressure Visibility Wind Dir Wind Speed Gust Speed Precip Events Conditions
12:00 AM 78.8 °F - 75.2 °F 89% 29.83 in 5.0 mi Variable 1.2 mph - N/A   Mostly Cloudy
12:30 AM 77.0 °F - 75.2 °F 94% 29.83 in 5.0 mi Variable 1.2 mph - N/A   Mostly Cloudy
1:00 AM 79 °F - 77 °F 93% 29.80 in 6 mi Calm Calm - -   Scattered Clouds
2:00 AM 77.0 °F - 75.2 °F 94% 29.80 in 5.0 mi Variable 1.2 mph - N/A   Mostly Cloudy
2:30 AM 77.0 °F - 75.2 °F 94% 29.80 in 5.0 mi Variable 1.2 mph - N/A   Mostly Cloudy
3:00 AM 77.0 °F - 75.2 °F 94% 29.80 in 5.0 mi ESE 1.2 mph - N/A   Mostly Cloudy
3:30 AM 77.0 °F - 75.2 °F 94% 29.80 in 5.0 mi East 2.3 mph - N/A   Mostly Cloudy
4:00 AM 79 °F - 76 °F 89% 29.75 in 6 mi Calm Calm - -   Scattered Clouds
4:00 AM 77.0 °F - 73.4 °F 89% 29.77 in 5.0 mi Variable 2.3 mph - N/A   Mostly Cloudy
4:30 AM 77.0 °F - 75.2 °F 94% 29.77 in 5.0 mi Variable 2.3 mph - N/A   Mostly Cloudy
5:00 AM 77.0 °F - 73.4 °F 89% 29.77 in 5.0 mi Variable 1.2 mph - N/A   Mostly Cloudy
5:30 AM 77.0 °F - 73.4 °F 89% 29.80 in 5.0 mi Variable 2.3 mph - N/A   Mostly Cloudy
6:00 AM 77.0 °F - 73.4 °F 89% 29.80 in 5.0 mi WNW 8.1 mph - N/A   Mostly Cloudy
6:30 AM 77.0 °F - 73.4 °F 89% 29.80 in 5.0 mi Calm Calm - N/A   Mostly Cloudy
7:00 AM 78 °F - 76 °F 93% 29.77 in 6 mi Calm Calm - -   Partly Cloudy
7:00 AM 77.0 °F - 75.2 °F 94% 29.80 in 5.0 mi Variable 2.3 mph - N/A   Mostly Cloudy
7:30 AM 78.8 °F - 75.2 °F 89% 29.80 in 5.0 mi Variable 1.2 mph - N/A   Mostly Cloudy
8:00 AM 78.8 °F - 75.2 °F 89% 29.83 in 5.0 mi Variable 2.3 mph - N/A   Mostly Cloudy
8:30 AM 82.4 °F 90.9 °F 77.0 °F 84% 29.83 in 5.0 mi WSW 10.4 mph - N/A   Mostly Cloudy
9:00 AM 86.0 °F 96.9 °F 77.0 °F 74% 29.83 in 5.0 mi WSW 13.8 mph - N/A   Mostly Cloudy
9:30 AM 86.0 °F 95.1 °F 75.2 °F 70% 29.83 in 5.0 mi West 15.0 mph - N/A   Mostly Cloudy
10:00 AM 86 °F - 75 °F 64% 29.81 in 6 mi West 9.2 mph - -   Scattered Clouds
10:00 AM 86.0 °F 96.9 °F 77.0 °F 74% 29.83 in 5.6 mi West 13.8 mph - N/A   Mostly Cloudy
10:30 AM 84.2 °F 94.1 °F 77.0 °F 79% 29.83 in 5.6 mi WSW 8.1 mph - N/A   Mostly Cloudy
11:00 AM 86.0 °F 95.1 °F 75.2 °F 70% 29.83 in 5.6 mi West 17.3 mph - N/A   Mostly Cloudy
12:00 PM 87.8 °F 97.6 °F 75.2 °F 66% 29.83 in 5.6 mi West 19.6 mph - N/A   Mostly Cloudy
12:30 PM 87.8 °F 97.6 °F 75.2 °F 66% 29.80 in 5.6 mi West 20.7 mph - N/A   Mostly Cloudy
1:00 PM 88 °F - 78 °F 64% 29.78 in 6 mi West 9.2 mph - -   Partly Cloudy
1:00 PM 87.8 °F 95.6 °F 73.4 °F 62% 29.80 in 5.6 mi West 15.0 mph - N/A   Mostly Cloudy
1:30 PM 86.0 °F 95.1 °F 75.2 °F 70% 29.80 in 5.6 mi West 17.3 mph - N/A   Mostly Cloudy
2:00 PM 86.0 °F 95.1 °F 75.2 °F 70% 29.77 in 5.6 mi West 17.3 mph - N/A   Mostly Cloudy
2:30 PM 86.0 °F 96.9 °F 77.0 °F 74% 29.77 in 5.6 mi West 13.8 mph - N/A   Mostly Cloudy
3:00 PM 86.0 °F 95.1 °F 75.2 °F 70% 29.77 in 5.6 mi WSW 17.3 mph - N/A   Mostly Cloudy
3:30 PM 86.0 °F 95.1 °F 75.2 °F 70% 29.77 in 5.6 mi West 15.0 mph - N/A   Mostly Cloudy
4:00 PM 87 °F - 77 °F 65% 29.72 in 6 mi WSW 4.6 mph - -   Scattered Clouds
4:00 PM 86.0 °F 95.1 °F 75.2 °F 70% 29.74 in 5.6 mi West 9.2 mph - N/A   Mostly Cloudy
4:30 PM 86.0 °F 95.1 °F 75.2 °F 70% 29.74 in 5.6 mi West 15.0 mph - N/A   Mostly Cloudy
5:00 PM 86.0 °F 95.1 °F 75.2 °F 70% 29.74 in 5.6 mi WSW 15.0 mph - N/A   Mostly Cloudy
5:30 PM 86.0 °F 95.1 °F 75.2 °F 70% 29.74 in 5.6 mi WSW 15.0 mph - N/A   Mostly Cloudy
6:30 PM 84.2 °F 92.3 °F 75.2 °F 74% 29.77 in 5.6 mi WSW 9.2 mph - N/A   Mostly Cloudy
7:00 PM 85 °F - 77 °F 70% 29.73 in 6 mi WSW 4.6 mph - -   Scattered Clouds
7:00 PM 84.2 °F 92.3 °F 75.2 °F 74% 29.77 in 5.6 mi WSW 16.1 mph - N/A   Mostly Cloudy
7:30 PM 84.2 °F 92.3 °F 75.2 °F 74% 29.77 in 5.6 mi WSW 11.5 mph - N/A   Mostly Cloudy
8:00 PM 84.2 °F 92.3 °F 75.2 °F 74% 29.80 in 5.6 mi WSW 11.5 mph - N/A   Mostly Cloudy
8:30 PM 84.2 °F 92.3 °F 75.2 °F 74% 29.80 in 6.2 mi WSW 9.2 mph - N/A   Mostly Cloudy
9:00 PM 84.2 °F 92.3 °F 75.2 °F 74% 29.83 in 6.2 mi West 11.5 mph - N/A   Mostly Cloudy
9:30 PM 84.2 °F 92.3 °F 75.2 °F 74% 29.83 in 6.2 mi West 12.7 mph - N/A   Mostly Cloudy
10:00 PM 84 °F - 76 °F 72% 29.79 in 6 mi WSW 6.9 mph - -   Scattered Clouds
10:00 PM 84.2 °F 92.3 °F 75.2 °F 74% 29.83 in 6.2 mi West 11.5 mph - N/A   Mostly Cloudy
10:30 PM 84.2 °F 92.3 °F 75.2 °F 74% 29.83 in 6.2 mi WSW 11.5 mph - N/A   Mostly Cloudy
11:00 PM 84.2 °F 92.3 °F 75.2 °F 74% 29.83 in 6.2 mi WSW 9.2 mph - N/A   Mostly Cloudy
11:30 PM 84.2 °F 92.3 °F 75.2 °F 74% 29.83 in 6.2 mi WSW 8.1 mph - N/A   Mostly Cloudy